SCP
0 0 0 0 0 0 0 0 0 0 0 0 0 0 0 0 0 0 0 0 0 0 0 0 0 0 0 0 0 0 0 0 0 0 0 0 0 0 0 0 0 0 0
0 0 0 0 0 0 0 0 0 0 0 0 0 0 0 0 0 0 0 0 0 0 0 0 0 0 0 0 0 0 0 0 0 0 0 0 0 0 0 0 0 0 0
0 0 0 0 0 0 0 0 0 0 0 0 0 0 0 0 0 0 0 0 0 0 0 0 0 0 0 0 0 0 0 0 0 0 0 0 0 0 0 0 0 0 0
0 0 0 0 0 0 0 0 0 0 0 0 0 0 0 0 0 0 0 0 0 0 0 0 0 0 0 0 0 0 0 0 0 0 0 0 0 0 0 0 0 0 0
0 0 0 0 0 0 0 0 0 0 0 0 0 0 0 0 0 0 0 0 0 0 0 0 0 0 0 0 0 0 0 0 0 0 0 0 0 0 0 0 0 0 0
0 0 0 0 0 0 0 0 0 0 0 0 0 0 0 0 0 0 0 0 0 0 0 0 0 0 0 0 0 0 0 0 0 0 0 0 0 0 0 0 0 0 0
0 0 0 0 0 0 0 0 0 0 0 0 0 0 0 0 0 0 0 0 0 0 0 0 0 0 0 0 0 0 0 0 0 0 0 0 0 0 0 0 0 0 0
0 0 0 0 0 0 0 0 0 0 0 0 0 0 0 0 0 0 0 0 0 0 0 0 0 0 0 0 0 0 0 0 0 0 0 0 0 0 0 0 0 0 0
0 0 0 0 0 0 0 0 0 0 0 0 0 0 0 0 0 0 0 0 0 0 0 0 0 0 0 0 0 0 0 0 0 0 0 0 0 0 0 0 0 0 0
0 0 0 0 0 0 0 0 0 0 0 0 0 0 0 0 0 0 0 0 0 0 0 0 0 0 0 0 0 0 0 0 0 0 0 0 0 0 0 0 0 0 0
0 0 0 0 0 0 0 0 0 0 0 0 0 0 0 0 0 0 0 0 0 0 0 0 0 0 0 0 0 0 0 0 0 0 0 0 0 0 0 0 0 0 0
0 0 0 0 0 0 0 0 0 0 0 0 0 0 0 0 0 0 0 0 0 0 0 0 0 0 0 0 0 0 0 0 0 0 0 0 0 0 0 0 0 0 0
0 0 0 0 0 0 0 0 0 0 0 0 0 0 0 0 0 0 0 0 0 0 0 0 0 0 0 0 0 0 0 0 0 0 0 0 0 0 0 0 0 0 0
0 0 0 0 0 0 0 0 0 0 0 0 0 0 0 0 0 0 0 0 0 0 0 0 0 0 0 0 0 0 0 0 0 0 0 0 0 0 0 0 0 0 0
0 0 0 0 0 0 0 0 0 0 0 0 0 0 0 0 0 0 0 0 0 0 0 0 0 0 0 0 0 0 0 0 0 0 0 0 0 0 0 0 0 0 0
0 0 0 0 0 0 0 0 0 0 0 0 0 0 0 0 0 0 0 0 0 0 0 0 0 0 0 0 0 0 0 0 0 0 0 0 0 0 0 0 0 0 0
0 0 0 0 0 0 0 0 0 0 0 0 0 0 0 0 0 0 0 0 0 0 0 0 0 0 0 0 0 0 0 0 0 0 0 0 0 0 0 0 0 0 0
0 0 0 0 0 0 0 0 0 0 0 0 0 0 0 0 0 0 0 0 0 0 0 0 0 0 0 0 0 0 0 0 0 0 0 0 0 0 0 0 0 0 0
0 0 0 0 0 0 0 0 0 0 0 0 0 0 0 0 0 0 0 0 0 0 0 0 0 0 0 0 0 0 0 0 0 0 0 0 0 0 0 0 0 0 0
0 0 0 0 0 0 0 0 0 0 0 0 0 0 0 0 0 0 0 0 0 0 0 0 0 0 0 0 0 0 0 0 0 0 0 0 0 0 0 0 0 0 0
0 0 0 0 0 0 0 0 0 0 0 0 0 0 0 0 0 0 0 0 0 0 0 0 0 0 0 0 0 0 0 0 0 0 0 0 0 0 0 0 0 0 0
0 0 0 0 0 0 0 0 0 0 0 0 0 0 0 0 0 0 0 0 0 0 0 0 0 0 0 0 0 0 0 0 0 0 0 0 0 0 0 0 0 0 0
0 0 0 0 0 0 0 0 0 0 0 0 0 0 0 0 0 0 0 0 0 0 0 0 0 0 0 0 0 0 0 0 0 0 0 0 0 0 0 0 0 0 0
0 0 0 0 0 0 0 0 0 0 0 0 0 0 0 0 0 0 0 0 0 0 0 0 0 0 0 0 0 0 0 0 0 0 0 0 0 0 0 0 0 0 0
0 0 0 0 0 0 0 0 0 0 0 0 0 0 0 0 0 0 0 0 0 0 0 0 0 0 0 0 0 0 0 0 0 0 0 0 0 0 0 0 0 0 0
0 0 0 0 0 0 0 0 0 0 0 0 0 0 0 0 0 0 0 0 0 0 0 0 0 0 0 0 0 0 0 0 0 0 0 0 0 0 0 0 0 0 0
Wind_Speed
1 2 1 4 6 7 7 8 9 9 10 10 10 10 11 11 11 11 11 11 11 11 12 12 12 12 13 13 13 13 13 13 13 13 12 12 13 13 13 12 11 7 13
1 1 1 4 7 7 7 8 8 9 10 10 10 9 10 11 11 11 11 11 11 11 11 11 12 12 13 12 12 12 12 12 13 13 12 11 11 12 12 11 11 7 12
2 1 3 5 7 7 7 8 8 9 9 10 10 9 9 10 11 11 11 11 11 11 11 11 11 12 12 12 12 12 12 12 12 12 11 6 6 10 11 10 10 11 11
3 2 3 6 7 7 7 8 8 8 9 9 10 9 9 9 10 11 11 11 11 11 11 11 12 12 12 12 12 12 12 12 12 11 6 5 4 8 10 9 9 9 9
4 3 3 6 7 7 7 7 7 8 8 9 9 9 8 9 10 11 11 11 10 11 11 11 11 11 11 11 11 11 11 11 11 8 5 4 4 7 8 8 8 8 8
4 4 4 7 7 7 7 7 7 7 8 8 8 8 8 9 10 10 10 10 11 11 11 11 11 11 10 11 10 10 10 10 8 5 4 4 3 6 7 7 7 7 8
4 4 4 7 7 7 7 7 7 7 7 7 8 8 8 8 9 9 10 10 10 10 10 11 10 10 10 10 9 9 10 9 6 4 4 3 3 6 7 6 7 7 7
5 4 4 7 7 7 7 7 7 6 7 7 7 7 8 7 8 9 9 9 9 9 10 10 10 10 10 9 9 10 9 8 6 4 4 3 5 7 7 7 6 6 6
5 5 4 4 5 6 7 6 7 6 6 7 7 7 7 7 7 8 8 8 8 9 9 9 10 10 10 10 10 10 9 9 5 3 3 2 5 6 7 8 7 6 6
5 5 4 4 4 4 4 7 7 8 7 8 8 8 8 8 7 8 7 7 8 8 9 9 9 9 10 10 10 9 9 7 4 3 2 2 5 6 6 7 7 8 7
4 3 4 4 4 4 4 6 7 8 9 8 8 9 8 5 4 5 6 7 8 8 8 8 9 10 9 9 9 9 7 3 3 3 2 4 5 5 5 6 7 7 7
2 2 3 3 3 4 3 4 3 4 5 5 4 5 4 4 4 5 7 8 8 8 8 9 9 9 7 4 6 7 3 3 3 2 3 6 5 5 5 5 5 5 6
2 2 2 2 3 3 3 3 2 2 3 4 5 4 4 4 3 3 3 4 4 6 4 5 5 4 4 3 3 3 3 3 2 2 4 7 6 4 4 4 4 4 5
3 2 1 2 2 3 3 2 2 2 2 3 3 4 3 2 2 2 2 2 2 2 3 3 2 3 4 4 3 4 4 2 2 2 3 7 7 5 4 4 3 3 3
3 2 2 2 2 2 3 2 3 2 2 2 2 3 3 2 2 2 2 2 2 2 2 2 2 3 3 3 3 3 3 3 3 3 3 7 8 7 6 5 5 5 4
4 3 2 3 2 2 2 2 2 2 2 2 2 2 3 2 2 2 2 2 2 2 2 2 2 2 2 2 3 3 2 2 2 3 3 4 8 9 8 7 7 7 6
4 4 3 3 3 3 3 2 2 2 2 2 2 2 2 2 2 2 1 1 1 1 2 2 2 2 2 2 2 2 2 2 2 3 3 3 4 8 9 9 8 8 8
4 4 3 3 3 3 2 2 2 2 2 1 1 1 2 2 2 2 1 1 1 1 1 2 2 2 2 2 2 2 2 2 2 2 3 3 3 3 6 9 9 8 8
5 5 4 3 3 3 2 2 2 2 2 1 1 1 1 2 2 2 1 1 1 1 1 2 2 1 1 2 1 2 2 2 2 2 3 3 3 3 3 7 9 9 9
4 5 4 4 3 3 2 2 2 2 1 1 1 1 1 1 2 2 1 2 1 1 2 2 2 2 1 1 1 2 2 2 2 2 2 2 3 4 4 4 4 6 9
4 4 4 4 4 3 2 2 2 1 1 1 1 1 1 1 2 2 2 1 1 1 1 2 1 2 2 1 2 2 2 2 2 2 2 2 3 3 3 4 3 3 4
5 5 4 4 4 3 2 2 2 2 1 1 0 1 1 1 1 2 2 1 1 1 2 2 2 1 1 1 2 1 1 2 2 2 1 1 2 2 3 4 3 3 3
4 4 4 4 3 3 2 2 2 2 1 1 0 0 0 1 1 1 2 2 1 2 2 1 2 2 1 0 1 2 1 1 2 2 1 1 1 2 2 2 2 3 3
4 3 3 3 3 3 3 3 4 3 2 2 2 1 1 1 1 2 2 2 2 1 2 2 1 1 2 1 0 1 1 1 1 2 2 1 1 1 2 2 2 2 2
3 3 3 3 2 2 3 3 4 3 2 1 1 1 1 1 1 1 2 2 2 1 2 2 2 1 1 2 1 1 1 0 1 1 3 3 2 2 2 2 2 2 2
2 3 3 3 3 2 3 3 4 4 3 2 2 2 1 1 1 1 1 2 2 2 2 2 2 2 2 1 1 1 1 1 2 2 2 3 3 2 2 2 2 2 2
Wind_Direction
273 280 231 107 104 95 92 94 91 91 89 84 86 89 90 90 89 88 85 83 82 80 80 83 83 82 81 81 81 80 78 76 74 73 72 75 77 77 77 75 71 64 69
199 226 156 109 103 98 96 94 92 91 92 91 87 86 89 89 88 87 84 82 80 79 80 81 82 82 81 80 79 80 78 76 73 69 65 64 73 78 79 77 76 75 74
127 150 134 104 99 99 95 93 89 88 90 92 91 87 91 92 90 88 82 79 78 79 79 79 79 80 79 78 77 77 76 76 71 65 58 45 56 73 77 77 76 75 75
103 94 100 98 99 98 96 98 94 91 91 94 92 89 91 93 92 90 84 80 77 78 80 80 80 79 78 77 75 75 77 75 69 61 47 37 42 69 76 75 75 75 73
83 69 84 96 98 97 98 99 101 96 93 95 97 93 91 91 91 89 85 82 79 77 78 79 79 80 80 79 76 74 76 73 67 55 42 35 34 63 70 71 72 73 72
78 63 75 85 92 92 94 94 101 100 96 96 96 94 94 92 90 87 84 84 82 78 77 76 76 78 82 80 78 75 75 71 62 48 39 30 25 56 67 69 69 69 68
76 62 68 76 84 89 88 86 94 101 101 100 98 94 91 90 91 88 83 83 83 79 78 76 76 78 78 78 78 77 75 72 62 49 37 25 27 53 66 72 76 72 64
84 71 67 71 70 74 82 85 86 90 98 103 101 97 93 91 92 89 85 82 83 81 78 77 76 74 74 74 74 75 74 70 63 50 36 24 37 53 60 64 69 71 66
78 73 61 59 61 61 64 72 74 79 85 94 98 93 90 88 89 87 84 81 82 82 80 77 75 73 70 70 71 70 69 62 55 44 34 19 40 55 59 57 57 62 66
72 67 63 59 57 53 58 61 62 66 74 79 76 72 74 77 77 72 71 75 78 78 77 75 72 69 66 66 67 65 63 55 40 33 22 23 43 55 59 62 60 60 62
73 61 63 64 59 53 62 62 57 61 67 70 68 65 65 58 54 54 56 67 73 73 74 74 71 68 64 59 60 61 56 42 34 25 10 27 44 54 62 65 63 60 60
110 68 59 66 64 59 63 63 55 55 57 60 62 62 64 58 51 53 50 58 63 63 65 66 65 63 58 45 48 51 42 37 37 15 10 23 37 50 58 57 55 56 54
138 92 54 69 70 73 75 70 62 60 59 58 57 59 64 63 53 49 49 42 47 52 52 54 53 47 48 44 41 41 37 37 30 9 8 19 25 38 50 55 50 47 46
138 129 94 81 76 75 80 80 83 74 68 63 52 60 69 69 56 52 56 47 47 45 54 52 57 54 52 48 46 44 37 32 22 14 13 22 22 26 34 41 44 45 45
154 151 139 118 103 90 84 82 82 79 81 78 66 57 64 76 73 56 56 54 53 52 59 61 64 62 57 47 43 45 38 29 23 17 7 21 24 23 27 31 38 41 37
174 172 156 140 130 116 106 102 100 91 84 82 76 70 74 81 82 71 54 50 52 56 60 71 78 74 63 54 41 34 31 27 28 23 20 20 27 27 27 28 31 29 28
178 172 164 153 135 128 119 111 104 100 94 89 80 78 79 81 92 94 84 62 41 48 61 72 70 66 61 52 38 25 28 24 29 33 31 31 27 28 28 29 28 26 24
172 168 167 151 140 139 130 118 111 110 111 107 93 85 85 87 88 95 93 66 37 56 71 80 76 68 55 46 32 16 22 20 26 40 46 43 39 34 24 28 27 24 21
176 167 161 152 149 146 133 120 115 113 112 111 107 107 98 102 98 101 97 70 59 60 66 70 63 78 70 40 27 25 22 17 12 49 55 50 45 42 31 24 24 20 18
169 162 161 156 151 141 131 116 106 93 95 100 115 119 107 109 107 105 98 80 81 76 57 66 74 60 85 56 43 28 13 12 21 46 54 46 41 42 38 29 18 9 14
163 161 165 164 163 153 151 150 152 164 157 146 140 108 118 113 117 119 106 101 95 102 92 84 87 71 54 50 61 23 8 19 37 38 36 44 37 34 35 30 20 12 1
178 175 171 174 172 172 173 169 166 159 166 168 142 103 112 117 122 130 125 137 127 106 89 81 83 86 61 56 88 84 359 346 359 12 17 41 22 20 24 20 13 12 3
189 185 181 180 172 169 157 133 111 95 86 108 148 182 180 140 138 140 149 144 146 142 148 145 125 121 136 45 51 120 135 248 306 317 322 352 3 8 357 351 355 356 358
193 175 168 170 168 163 156 157 162 171 185 207 203 199 191 164 161 161 159 157 166 168 161 168 135 151 144 163 47 52 125 161 191 304 308 310 329 332 330 332 332 332 342
175 163 164 160 165 156 159 173 174 186 199 192 163 171 182 181 182 176 163 161 169 176 173 161 158 161 158 165 169 143 98 80 178 209 280 301 313 293 295 294 295 302 312
167 160 169 168 176 174 172 178 186 194 191 180 187 194 206 208 203 191 176 173 179 179 184 185 178 173 180 170 176 172 175 186 195 200 250 286 296 290 291 276 275 283 287